COSMOS 1275 DEB, 12696

Orbit data source: Space-Track

COSMOS 1275 DEB, 12696 is space debris in LEO originally from a launch on Thu, 04 Jun 1981 UTC launched from the Plesetsk Missile And Space Complex (PKMTR). Debris objects in space refer to the collection of defunct objects orbiting the Earth. Examples of debris include non-operational satellites, rocket bodies, and fragments generated from explosions, collisions, or faulty payload assembly.

Loading next visibility...
Identifier
12696, 1981-053AQ
Orbit
LEO
Country
Flag of CISCIS
Related business
Manufacturer
Unknown
Mission
Spacecraft
Bus & Motor
Unknown
Mass
Unknown
Launch date (UTC)
1981-06-04 (45 years ago)
Launch vehicle
Unknown
Launch site
Plesetsk Missile And Space Complex (PKMTR)
Object type
Payload
Rocket body
Debris
Shape & HBR
Unknown shape, 0.2 m
Radar Cross Section
Medium (>0.1 m² and <1 m²)

Expand to show TLE details & history
Last TLE update: 1 day ago

TLE from 1 day ago
0 COSMOS 1275 DEB
1 12696U 81053AQ  26174.99063265  .00000499  00000-0  67443-3 0  9990
2 12696  83.0716 262.6142 0148223 197.9404 341.6752 13.53342450208589
Epoch: 2026-06-23T23:46Z
TLE epoch observation values (Epoch: 2026-06-23T23:46:30.660Z)
Latitude
0.81181°
Longitude
173.73404°
Altitude
958.244 km
Speed
7.424 km/s
True Right ascension
05h 30m 03s
True Declination
0° 48' 26"
Sunlit
Object was in daylight at epoch
Visualization orbit readout
Latitude
Unknown
Longitude
Unknown
Altitude
Unknown
Speed
Unknown
Apparent Right ascension
Unknown
Apparent Declination
Unknown
Sunlit
N/A
Visualization observer readout
Local Sidereal Time
12:53:55
Azimuth
Unknown
Elevation
Unknown
Doppler factor
Unknown
Orbital elements
Apogee altitude
1,167.368 km
Perigee altitude
946.951 km
Semi-major axis
7,435.296 km
Eccentricity
0.01482
Inclination
83.0716°
RAAN
262.6142°
Arg. of periapsis
197.9404°
True anomaly
341.13164°
Mean anomaly
341.6752°
Eccentric anomaly
341.40438°
Mean motion
3.38529 °/min
Orbital period
106.34 mins
BSTAR
0.00067443
Loading maneuver chart data...
Computing Atmospheric mass density...

Documentation

Showing up to 5 results
|